Location: Arpaise
(41.0333°N, 14.7333°E)
Time: 00:15:15
(UTC+00:00)

USA 267 - Pass Details

Date: 05 July 2020
Orbit: 1102 x 1106 km, 123.0° (Epoch: 09 August)

Event Time Altitude Azimuth Distance (km) Brightness Sun altitude
Exits shadow 23:21:16 34° 244° (WSW) 1,714 4.0 -26.2°
Drops below altitude 10° 23:26:34 10° 297° (WNW) 2,961 5.7 -26.1°
Sets 23:29:19 0° 306° (NW) 3,923 6.6 -26.1°
